Location: ??????
(38.0131°N, 23.7723°E)
Time: 01:35:51
(UTC+00:00)

Cosmos 2263 Rocket - Pass Details

Date: 17 October 2021
Orbit: 825 x 847 km, 71.0° (Epoch: 04 December)

Event Time Altitude Azimuth Distance (km) Brightness Sun altitude
Rises 18:50:02 0° 321° (NW) 3,367 6.0 -37.0°
Reaches altitude 10° 18:53:00 10° 306° (NW) 2,429 5.3 -37.5°
Maximum altitude 18:57:02 21° 260° (W) 1,780 4.3 -38.3°
Enters shadow 18:57:39 21° 250° (WSW) 1,797 4.2 -38.4°
